User: anonymous   Login
Location: Columbia
(38.9520°N, 92.3340°W)
Time: 10:54:53
(UTC-05:00)
Language:

SJ-11-01 - Orbit

View from above orbital plane
View from above orbital plane
View from above satellite
View from above satellite

Ground track
Ground track

The orbit data is extracted from the following two-line orbital elements,

1 36088U 09061A   16207.12307039  .00000123  00000-0  35362-4 0  9991
2 36088  98.1853 254.0735 0010743 201.7713 158.3039 14.59855174356926
Epoch (UTC): 25 July 2016 02:57:13
Eccentricity: 0.0010743
inclination: 98.1853°
perigee height: 686 km
apogee height: 701 km
right ascension of ascending node: 254.0735°
argument of perigee: 201.7713°
revolutions per day: 14.59855174
mean anomaly at epoch: 158.3039°
orbit number at epoch: 35692

The dashed part of the orbit path shows where the satellite is in the earth's shadow,  

DLR